Voltar ao catálogo

KUIPER-00546

AtivoComunicaçõesLEO
NORAD 69614·PAYLOAD·🇺🇸 United States

Lançado Jun 17, 2026 de Guiana Space Centre

Loading…

Próximas Passagens (próximas 24 horas)

TLE

AtualizadoSource: CelesTrak SupGP

Época: Sep 14, 2026, 21:54 UTC

1 69614C 26140Y   26257.91251157 -.00739460  00000+0 -78109-1 0  2575
2 69614  51.8974 329.1032 0020137 109.6159 171.5508 14.89351016    12

Acompanhe KUIPER-00546 em tempo real com AllMySat

Download on the App Store